Hourly Data Report for October 03, 2015

All times are specified in Local Standard Time (LST). Add 1 hour to adjust for Daylight Saving Time where and when it is observed.

PETAWAWA AWOS 2
ONTARIO

45°57'00.000" N
77°19'00.000" W
130.10 m
6106396
71625
YWA

Download Data

Hourly Data (October 2015)
Hourly Data Report for October 3, 2015
Temp Definition
°C
Dew Point Temp Definition
°C
Rel Hum Definition
%
Wind Dir Definition
10's deg

Wind Spd Definition
km/h
Visibility Definition
km
Stn Press Definition
kPa
Hmdx Definition


Wind Chill Definition


Weather Definition


TIME
00:00 6.6 -1.4 57 5 13 14.5 102.06     LegendNANA
01:00 6.5 -0.6 60 5 19 14.5 102.08     LegendNANA
02:00 6.5 0.2 64 5 22 14.5 102.01     LegendNANA
03:00 6.4 0.4 65 7 13 14.5 102.04     LegendNANA
04:00 5.8 0.0 66 7 17 14.5 102.06     LegendNANA
05:00 5.5 0.0 68 8 15 14.5 102.09     LegendNANA
06:00 5.5 0.7 71 9 7 14.5 102.08     LegendNANA
07:00 5.4 0.2 69 8 13 14.5 102.10     LegendNANA
08:00 6.9 0.9 66 9 19 14.5 102.14     LegendNANA
09:00 7.9 0.7 60 10 22 14.5 102.11     LegendNANA
10:00 9.5 0.4 53 9 17 14.5 102.08     LegendNANA
11:00 10.6 0.4 49 9 15 14.5 102.05     LegendNANA
12:00 11.7 0.3 45 9 19 14.5 101.97     LegendNANA
13:00 12.5 0.0 42 9 20 14.5 101.89     LegendNANA
14:00 13.4 0.5 41 7 13 14.5 101.82     LegendNANA
15:00 12.9 1.4 45 6 19 14.5 101.80     LegendNANA
16:00 12.8 2.1 48 9 15 14.5 101.77     LegendNANA
17:00 11.7 1.9 51 8 7 14.5 101.76     LegendNANA
18:00 11.2 2.1 53 7 9 14.5 101.74     LegendNANA
19:00 10.0 2.4 59 7 7 14.5 101.73     LegendNANA
20:00 10.1 2.0 57 9 11 14.5 101.74     LegendNANA
21:00 10.0 2.2 58 10 15 14.5 101.75     LegendNANA
22:00 9.6 2.2 60 9 11 14.5 101.74     LegendNANA
23:00 9.3 2.4 62 10 11 14.5 101.71     LegendNANA

Notes on Data Quality.

Legend

  • E = Estimated
  • M = Missing
  • NA = Not Available
  • ‡ = Partner data that is not subject to review by the National Climate Archives
Date modified: